| time (UTC) | temp C | wind direction | speed KPH | gust KPH | rain 1hr cm | rain 24hr cm | rain mn cm | humidity % | barometer mb |
| 20260506163058 | 10 | 234 | 12.9 | 22.5 | 0.00 | 0.00 | 0.00 | 39 | 1016.4 |
| 20260506161553 | 8 | 196 | 12.9 | 20.9 | 0.00 | 0.00 | 0.00 | 43 | 1016.8 |
| 20260506160044 | 8 | 235 | 11.3 | 22.5 | 0.00 | 0.00 | 0.00 | 45 | 1016.9 |
| 20260506154547 | 7 | 226 | 11.3 | 20.9 | 0.00 | 0.00 | 0.00 | 47 | 1017.3 |
| 20260506153038 | 7 | 223 | 11.3 | 17.7 | 0.00 | 0.00 | 0.00 | 46 | 1017.6 |
| 20260506151537 | 6 | 193 | 8.0 | 16.1 | 0.00 | 0.00 | 0.00 | 47 | 1017.8 |
| 20260506150029 | 5 | 221 | 9.7 | 14.5 | 0.00 | 0.00 | 0.00 | 45 | 1018.2 |
| 20260506144527 | 5 | 192 | 9.7 | 16.1 | 0.00 | 0.00 | 0.00 | 46 | 1018.3 |
| 20260506143023 | 4 | 206 | 8.0 | 16.1 | 0.00 | 0.00 | 0.00 | 47 | 1018.3 |
| 20260506141519 | 3 | 204 | 8.0 | 11.3 | 0.00 | 0.00 | 0.00 | 48 | 1018.4 |
| 20260506140021 | 1 | 209 | 6.4 | 11.3 | 0.00 | 0.00 | 0.00 | 52 | 1018.6 |
| 20260506134513 | 1 | 207 | 8.0 | 12.9 | 0.00 | 0.00 | 0.00 | 53 | 1018.6 |
| 20260506133007 | 0 | 196 | 4.8 | 11.3 | 0.00 | 0.00 | 0.00 | 56 | 1018.6 |
| 20260506131510 | 0 | 227 | 6.4 | 12.9 | 0.00 | 0.00 | 0.00 | 58 | 1018.7 |
| 20260506124558 | -2 | 286 | 1.6 | 8.0 | 0.00 | 0.00 | 0.00 | 65 | 1018.7 |
| 20260506123057 | -3 | 263 | 1.6 | 6.4 | 0.00 | 0.00 | 0.00 | 66 | 1018.8 |
| 20260506121555 | -4 | 279 | 0.0 | 1.6 | 0.00 | 0.00 | 0.00 | 68 | 1018.9 |
| 20260506120054 | -5 | 279 | 0.0 | 3.2 | 0.00 | 0.00 | 0.00 | 68 | 1018.9 |
| 20260506114558 | -5 | 279 | 0.0 | 3.2 | 0.00 | 0.00 | 0.00 | 67 | 1019.1 |
| 20260506113053 | -5 | 283 | 1.6 | 4.8 | 0.00 | 0.00 | 0.00 | 67 | 1019.2 |
| 20260506111551 | -5 | 284 | 3.2 | 4.8 | 0.00 | 0.00 | 0.00 | 67 | 1019.3 |
| 20260506110047 | -5 | 277 | 1.6 | 4.8 | 0.00 | 0.00 | 0.00 | 67 | 1019.4 |
| 20260506104554 | -5 | 277 | 1.6 | 6.4 | 0.00 | 0.00 | 0.00 | 67 | 1019.5 |
| 20260506103043 | -5 | 277 | 1.6 | 4.8 | 0.00 | 0.00 | 0.00 | 65 | 1019.5 |
| 20260506101549 | -5 | 281 | 3.2 | 4.8 | 0.00 | 0.00 | 0.00 | 65 | 1019.6 |
| 20260506100041 | -5 | 277 | 1.6 | 4.8 | 0.00 | 0.00 | 0.00 | 67 | 1019.8 |
| 20260506094539 | -6 | 257 | 0.0 | 4.8 | 0.00 | 0.00 | 0.00 | 66 | 1019.9 |
| 20260506093036 | -5 | 293 | 1.6 | 6.4 | 0.00 | 0.00 | 0.00 | 65 | 1020.0 |
| 20260506091535 | -5 | 276 | 3.2 | 8.0 | 0.00 | 0.00 | 0.00 | 66 | 1020.1 |
| 20260506090035 | -6 | 303 | 0.0 | 6.4 | 0.00 | 0.00 | 0.00 | 65 | 1020.1 |
| 20260506084538 | -5 | 290 | 0.0 | 6.4 | 0.00 | 0.00 | 0.00 | 64 | 1020.1 |
| 20260506083032 | -5 | 287 | 1.6 | 6.4 | 0.00 | 0.00 | 0.00 | 64 | 1020.1 |
| 20260506081528 | -5 | 287 | 1.6 | 3.2 | 0.00 | 0.00 | 0.00 | 65 | 1020.2 |
| 20260506073019 | -4 | 53 | 0.0 | 1.6 | 0.00 | 0.00 | 0.00 | 63 | 1020.5 |
| 20260506071518 | -5 | 53 | 1.6 | 4.8 | 0.00 | 0.00 | 0.00 | 63 | 1020.6 |
| 20260506061504 | -2 | 53 | 1.6 | 4.8 | 0.00 | 0.00 | 0.00 | 56 | 1020.7 |
| 20260506060104 | -2 | 53 | 0.0 | 4.8 | 0.00 | 0.00 | 0.00 | 57 | 1020.6 |
| 20260506044623 | 2 | 60 | 1.6 | 4.8 | 0.00 | 0.00 | 0.00 | 44 | 1020.6 |
| 20260506043053 | 2 | 5 | 1.6 | 6.4 | 0.00 | 0.00 | 0.00 | 43 | 1020.7 |
| 20260506041553 | 3 | 5 | 1.6 | 8.0 | 0.00 | 0.00 | 0.00 | 42 | 1020.7 |
| 20260506040052 | 3 | 348 | 6.4 | 9.7 | 0.00 | 0.00 | 0.00 | 42 | 1020.7 |
| 20260506034552 | 3 | 15 | 4.8 | 9.7 | 0.00 | 0.00 | 0.00 | 41 | 1020.7 |
| 20260506033052 | 3 | 350 | 3.2 | 8.0 | 0.00 | 0.00 | 0.00 | 41 | 1020.6 |
| 20260506031549 | 3 | 346 | 3.2 | 8.0 | 0.00 | 0.00 | 0.00 | 40 | 1020.5 |
| 20260506030049 | 5 | 349 | 4.8 | 9.7 | 0.00 | 0.00 | 0.00 | 38 | 1020.3 |
| 20260506024549 | 5 | 13 | 4.8 | 9.7 | 0.00 | 0.00 | 0.00 | 37 | 1020.1 |
| 20260506023149 | 6 | 360 | 3.2 | 12.9 | 0.00 | 0.00 | 0.00 | 35 | 1020.1 |
| 20260506021555 | 7 | 360 | 6.4 | 14.5 | 0.00 | 0.00 | 0.00 | 33 | 1020.0 |
| 20260506020048 | 7 | 360 | 9.7 | 22.5 | 0.00 | 0.00 | 0.00 | 32 | 1019.8 |
| 20260506014546 | 7 | 5 | 14.5 | 24.1 | 0.00 | 0.00 | 0.00 | 32 | 1019.8 |
| 20260506013045 | 8 | 334 | 9.7 | 19.3 | 0.00 | 0.00 | 0.00 | 31 | 1019.8 |
| 20260506011544 | 8 | 5 | 12.9 | 25.7 | 0.00 | 0.00 | 0.00 | 31 | 1019.7 |
| 20260506010054 | 8 | 12 | 12.9 | 27.4 | 0.00 | 0.00 | 0.00 | 29 | 1019.5 |
| 20260506004549 | 8 | 355 | 14.5 | 24.1 | 0.00 | 0.00 | 0.00 | 30 | 1019.6 |
| 20260506003043 | 8 | 15 | 11.3 | 29.0 | 0.00 | 0.00 | 0.00 | 30 | 1019.6 |
| 20260506001546 | 9 | 355 | 9.7 | 32.2 | 0.00 | 0.00 | 0.00 | 32 | 1019.5 |
| 20260506000042 | 8 | 325 | 14.5 | 27.4 | 0.00 | 0.00 | 0.00 | 31 | 1019.4 |
| 20260505234601 | 8 | 355 | 16.1 | 29.0 | 0.00 | 0.00 | 0.00 | 31 | 1019.5 |
| 20260505233042 | 9 | 336 | 16.1 | 24.1 | 0.00 | 0.00 | 0.00 | 30 | 1019.4 |
| 20260505231539 | 9 | 331 | 11.3 | 25.7 | 0.00 | 0.00 | 0.00 | 31 | 1019.3 |
| 20260505230039 | 8 | 32 | 14.5 | 30.6 | 0.00 | 0.00 | 0.00 | 32 | 1019.3 |
| 20260505224537 | 9 | 319 | 19.3 | 30.6 | 0.00 | 0.00 | 0.00 | 31 | 1019.3 |
| 20260505223040 | 8 | 340 | 16.1 | 32.2 | 0.00 | 0.00 | 0.00 | 32 | 1019.4 |
| 20260505221536 | 8 | 343 | 16.1 | 29.0 | 0.00 | 0.00 | 0.00 | 34 | 1019.4 |
| 20260505220040 | 8 | 340 | 22.5 | 30.6 | 0.00 | 0.00 | 0.00 | 33 | 1019.4 |
| 20260505214559 | 8 | 338 | 14.5 | 32.2 | 0.00 | 0.00 | 0.00 | 32 | 1019.4 |
| 20260505213036 | 8 | 11 | 14.5 | 30.6 | 0.00 | 0.00 | 0.00 | 34 | 1019.5 |
| 20260505211535 | 8 | 336 | 12.9 | 29.0 | 0.00 | 0.00 | 0.00 | 34 | 1019.6 |
| 20260505210034 | 8 | 5 | 17.7 | 33.8 | 0.00 | 0.00 | 0.00 | 35 | 1019.8 |
| 20260505204537 | 7 | 343 | 16.1 | 30.6 | 0.00 | 0.00 | 0.00 | 37 | 1019.8 |
| 20260505203038 | 7 | 336 | 14.5 | 30.6 | 0.00 | 0.00 | 0.00 | 37 | 1019.8 |
| 20260505201536 | 8 | 328 | 11.3 | 24.1 | 0.00 | 0.00 | 0.00 | 36 | 1019.8 |
| 20260505200029 | 7 | 5 | 12.9 | 29.0 | 0.00 | 0.00 | 0.00 | 37 | 1019.8 |
| 20260505194533 | 7 | 345 | 16.1 | 25.7 | 0.00 | 0.00 | 0.00 | 39 | 1019.7 |
| 20260505193028 | 7 | 315 | 12.9 | 32.2 | 0.00 | 0.00 | 0.00 | 39 | 1019.6 |
| 20260505191528 | 8 | 304 | 12.9 | 30.6 | 0.00 | 0.00 | 0.00 | 39 | 1019.7 |
| 20260505190026 | 7 | 355 | 14.5 | 24.1 | 0.00 | 0.00 | 0.00 | 40 | 1019.7 |
| 20260505184527 | 7 | 328 | 19.3 | 33.8 | 0.00 | 0.00 | 0.00 | 40 | 1019.6 |
| 20260505183023 | 7 | 329 | 14.5 | 30.6 | 0.00 | 0.00 | 0.00 | 42 | 1019.8 |
| 20260505181522 | 7 | 13 | 16.1 | 27.4 | 0.00 | 0.00 | 0.00 | 43 | 1019.8 |
| 20260505180041 | 6 | 17 | 11.3 | 29.0 | 0.00 | 0.00 | 0.00 | 44 | 1019.9 |
| 20260505174544 | 6 | 346 | 14.5 | 27.4 | 0.00 | 0.00 | 0.00 | 43 | 1019.9 |
| 20260505173023 | 6 | 12 | 20.9 | 30.6 | 0.00 | 0.00 | 0.00 | 43 | 1020.0 |
| 20260505171522 | 6 | 19 | 16.1 | 29.0 | 0.00 | 0.00 | 0.00 | 46 | 1020.0 |
| 20260505170016 | 6 | 31 | 14.5 | 24.1 | 0.00 | 0.00 | 0.00 | 47 | 1020.2 |
| 20260505164516 | 5 | 355 | 16.1 | 29.0 | 0.00 | 0.00 | 0.00 | 50 | 1020.3 |